Redwood Falls, MN

8:54 PM CST on December 11, 2017 (GMT -0600)
Redwood Falls Municipal

Weather History for KRWF - October, 2012

Change the Weather History Date:

Sunday, October 7, 2012

  Actual Average Record
Temperature  
Mean Temperature 40 °F -  
Max Temperature 57 °F 63 °F 87 °F (1980)
Min Temperature 23 °F 40 °F 21 °F (2000)
Degree Days  
Heating Degree Days 25    
Moisture  
Dew Point 18 °F    
Average Humidity 48    
Maximum Humidity 78    
Minimum Humidity 20    
Precipitation  
Precipitation 0.00 in - - ()
Sea Level Pressure  
Sea Level Pressure 30.08 in    
Wind  
Wind Speed 8 mph (SW)    
Max Wind Speed 20 mph    
Max Gust Speed 25 mph    
Visibility 10 miles    
Events      
Averages and records for this station are not official NWS values.
T = Trace of Precipitation, MM = Missing Value Source: NWS Daily Summary

Daily Weather History Graph

Daily Weather History Graph

Search for Another Location

Airport or City:

Trip Planner

Search our weather history database for the weather conditions in past years. The results will help you decide how hot, cold, wet, or windy it might be!

Date:

Astronomy

Oct. 07, 2012 Rise Set
Actual Time 7:26 AM CDT 6:49 PM CDT
Civil Twilight 6:57 AM CDT 7:18 PM CDT
Nautical Twilight 6:23 AM CDT 7:51 PM CDT
Astronomical Twilight 5:49 AM CDT 8:25 PM CDT
Moon 11:52 PM CDT (10/7) 2:13 PM CDT (10/7)
Length of Visible Light 12h 21m
Length of Day
11h 22m
Waning Gibbous, 56% of the Moon is Illuminated
Oct 7
Waning Gibbous
Oct 8
Last Quarter
Oct 15
New
Oct 21
First Quarter
Oct 29
Full

Hourly Weather History & Observations

Time (CDT) Temp. Windchill Dew Point Humidity Pressure Visibility Wind Dir Wind Speed Gust Speed Precip Events Conditions
12:53 AM 30.9 °F 27.5 °F 21.0 °F 67% 30.28 in 10.0 mi West 3.5 mph - N/A   Clear
1:53 AM 28.0 °F 24.2 °F 19.9 °F 72% 30.27 in 10.0 mi WSW 3.5 mph - N/A   Clear
2:53 AM 28.0 °F 20.8 °F 19.0 °F 69% 30.26 in 10.0 mi WSW 6.9 mph - N/A   Clear
3:53 AM 25.0 °F 17.1 °F 18.0 °F 75% 30.24 in 10.0 mi SW 6.9 mph - N/A   Clear
4:53 AM 23.0 °F 15.8 °F 17.1 °F 78% 30.23 in 10.0 mi SW 5.8 mph - N/A   Clear
5:53 AM 25.0 °F 16.3 °F 19.0 °F 78% 30.22 in 10.0 mi SW 8.1 mph - N/A   Clear
6:53 AM 25.0 °F 16.3 °F 19.0 °F 78% 30.20 in 10.0 mi SW 8.1 mph - N/A   Clear
7:53 AM 26.1 °F 16.2 °F 19.0 °F 75% 30.19 in 10.0 mi SW 10.4 mph - N/A   Clear
8:53 AM 30.9 °F 21.7 °F 21.9 °F 69% 30.18 in 10.0 mi SW 11.5 mph - N/A   Clear
9:53 AM 39.9 °F 31.8 °F 23.0 °F 51% 30.17 in 10.0 mi SW 15.0 mph - N/A   Clear
10:53 AM 46.0 °F 38.8 °F 21.0 °F 37% 30.14 in 10.0 mi SW 18.4 mph 25.3 mph N/A   Clear
12:53 PM 52.0 °F - 18.0 °F 26% 30.08 in 10.0 mi SW 15.0 mph 23.0 mph N/A   Clear
1:53 PM 55.0 °F - 17.1 °F 23% 30.04 in 10.0 mi WSW 19.6 mph 25.3 mph N/A   Clear
2:53 PM 55.0 °F - 17.1 °F 23% 30.01 in 10.0 mi WSW 13.8 mph - N/A   Clear
3:53 PM 55.9 °F - 17.1 °F 22% 29.98 in 10.0 mi West 13.8 mph - N/A   Clear
4:53 PM 57.0 °F - 16.0 °F 20% 29.95 in 10.0 mi WSW 9.2 mph - N/A   Clear
5:53 PM 55.0 °F - 16.0 °F 22% 29.94 in 10.0 mi SW 10.4 mph - N/A   Mostly Cloudy
6:53 PM 50.0 °F - 17.1 °F 27% 29.94 in 10.0 mi SW 6.9 mph - N/A   Clear
7:53 PM 45.0 °F 41.2 °F 17.1 °F 33% 29.93 in 10.0 mi SSW 6.9 mph - N/A   Clear
8:53 PM 41.0 °F 35.8 °F 17.1 °F 38% 29.92 in 10.0 mi SSW 8.1 mph - N/A   Clear
9:53 PM 39.9 °F 32.9 °F 17.1 °F 40% 29.91 in 10.0 mi SSW 11.5 mph - N/A   Clear
10:53 PM 39.0 °F 32.8 °F 18.0 °F 43% 29.89 in 10.0 mi SSW 9.2 mph - N/A   Clear
11:53 PM 37.0 °F 29.8 °F 18.0 °F 46% 29.87 in 10.0 mi SSW 10.4 mph - N/A   Clear